Miscellaneous Local Product
Issued by NWS North Platte, NE

Home | Current Version | Previous Version | Graphics & Text | Print | Product List | Glossary On
Versions: 1 2 3 4 5 6 7 8 9 10 11 12 13 14 15 16 17 18 19 20 21 22 23 24 25 26 27 28 29 30 31 32 33 34 35 36 37 38 39 40 41 42 43 44 45 46 47 48 49 50
000
AXUS43 KLBF 240510
MISLBF


WESTERN AND NORTH CENTRAL NEBRASKA HOURLY WEATHER ROUNDUP
NATIONAL WEATHER SERVICE NORTH PLATTE NE
1200 AM CDT TUE OCT 24 2017

NOTE: "FAIR" INDICATES FEW OR NO CLOUDS BELOW 12,000 FEET WITH NO
SIGNIFICANT WEATHER AND/OR OBSTRUCTIONS TO VISIBILITY.

NOTE: STATIONS NOT REPORTING VARIABLES SUCH AS SKY/WEATHER OR
PRESSURE ARE PROVIDED BY RAWS AND APRS NETWORKS AND ARE NOT UNDER
NATIONAL WEATHER SERVICE QUALITY CONTROL.

...OBSERVATIONS IN AND NEAR THE EASTERN PANHANDLE OF NEBRASKA...

CITY           SKY/WX    TMP DP  RH WIND       PRES   REMARKS
PINE RIDGE     CLEAR     38  23  55 NW8       30.44R WCI  32
GORDON         FAIR      42  23  46 NW13      30.42R
CHADRON        CLEAR     41  19  41 NW12      30.47R
ALLIANCE       CLEAR     28  19  69 W13       30.45S HAZE    WCI  17
SIDNEY         CLEAR     37  18  46 NW10      30.49R WCI  30
CRESCENT LAKE    N/A     39  20  47 NW12        N/A  WCI  32
$$

...OBSERVATIONS IN NORTHERN NEBRASKA AND FAR SOUTHERN SOUTH DAKOTA...

CITY           SKY/WX    TMP DP  RH WIND       PRES   REMARKS
WINNER         FAIR      47  28  47 NW18      30.27R
VALENTINE      CLEAR     49  23  36 NW17G25   30.31S
THEDFORD       CLEAR     47  24  41 NW15G21   30.33S
AINSWORTH      PTCLDY    47  25  42 NW17G26   30.29R
O`NEILL        CLOUDY    48  30  49 NW16G25   30.20F
ORD            PTCLDY    48  27  44 NW16      30.21F
BROKEN BOW     CLEAR     50  23  34 NW21G32   30.26S
HALSEY           N/A     47  20  34 NW10G20     N/A
BUTTE            N/A     50  30  46 NW22G38     N/A
CHAMBERS         N/A     47  27  46 NE5         N/A
EWING            N/A     49  32  52 NW13G20     N/A
$$

...OBSERVATIONS IN SOUTHWEST NEBRASKA AND FAR NORTHEAST COLORADO...

CITY           SKY/WX    TMP DP  RH WIND       PRES   REMARKS
HOLYOKE        FAIR      45  21  39 NW16      30.46R
IMPERIAL       CLEAR     39  21  48 W10       30.42R WCI  32
OGALLALA       CLEAR     45  21  39 NW13      30.42S
NORTH PLATTE   CLEAR     42  24  49 NW14      30.36S
MCCOOK         CLEAR     43  22  43 W12       30.37S
LEXINGTON      CLEAR     48  23  37 NW16      30.31S
STAPLETON        N/A     46  24  41 NW5G12      N/A
GOTHENBURG       N/A     45  19  35 W6          N/A
CALLAWAY         N/A     47  25  41 NW13        N/A
$$

...OBSERVATIONS IN CENTRAL LINCOLN COUNTY AREA...

CITY           SKY/WX    TMP DP  RH WIND       PRES   REMARKS
N.P. AIRPORT   CLEAR     42  24  49 NW14      30.36S
N.P. DOWNTOWN    N/A     43  23  45 W5G12       N/A
N.P. SOUTHEAST   N/A     44  21  40 NW6G14      N/A
N.P. HILLCREST   N/A     44  23  43 NW13G20     N/A
$$

...SOME OBSERVATIONS FROM AROUND THE REGION...

CITY           SKY/WX    TMP DP  RH WIND       PRES   REMARKS
DENVER         CLOUDY    40  20  44 CALM      30.57R
LIMON          CLOUDY    26  19  74 NW3       30.55R
ASPEN          CLOUDY    35  23  61 S5        30.60S WCI  31
LARAMIE        CLOUDY    30  14  51 W12       30.59S WCI  20
CASPER         CLEAR     27  16  63 SW6       30.60S WCI  20
CHEYENNE       CLEAR     38  17  42 N14       30.56R WCI  30
SCOTTSBLUFF    CLEAR     43  18  36 NW12      30.50S
GRAND ISLAND   PTCLDY    45  30  55 W13       30.22S
OMAHA          CLOUDY    53  33  46 NW20G25   30.03F
SIOUX FALLS    PTCLDY    46  36  68 NW26G43   30.06R
PIERRE         CLEAR     46  29  51 NW21G28   30.28R
RAPID CITY     CLEAR     47  21  35 NW24G31   30.43R
BISMARCK       CLEAR     44  31  60 NW14      30.32R
KANSAS CITY    CLEAR     48  34  58 W8        30.06F
HILL CITY      CLEAR     49  22  34 NW13      30.35S
WICHITA        CLEAR     51  30  44 NW12      30.25S
DODGE CITY     CLEAR     49  19  30 NW15      30.38R
OKLAHOMA CITY  PTCLDY    50  35  56 NW7       30.28R
DALLAS         PTCLDY    67  43  41 N15G24    30.20R
AMARILLO       CLOUDY    44  30  57 N9        30.46R
$$




USA.gov is the U.S. government's official web portal to all federal, state and local government web resources and services.